| time (UTC) | temp C | wind direction | speed KPH | gust KPH | rain 1hr cm | rain 24hr cm | rain mn cm | humidity % | barometer mb |
| 20260506050512 | 7 | 14 | 1.6 | 8.0 | 0.00 | 0.00 | 0.00 | 51 | 1010.9 |
| 20260506045007 | 7 | 19 | 1.6 | 8.0 | 0.00 | 0.00 | 0.00 | 50 | 1011.0 |
| 20260506044528 | 8 | 46 | 3.2 | 6.4 | 0.00 | 0.00 | 0.00 | 49 | 1011.0 |
| 20260506044006 | 8 | 66 | 1.6 | 8.0 | 0.00 | 0.00 | 0.00 | 48 | 1010.9 |
| 20260506043503 | 8 | 37 | 1.6 | 8.0 | 0.00 | 0.00 | 0.00 | 47 | 1010.8 |
| 20260506043012 | 8 | 59 | 1.6 | 8.0 | 0.00 | 0.00 | 0.00 | 46 | 1010.8 |
| 20260506042506 | 8 | 41 | 3.2 | 11.3 | 0.00 | 0.00 | 0.00 | 45 | 1010.7 |
| 20260506042012 | 8 | 21 | 4.8 | 12.9 | 0.00 | 0.00 | 0.00 | 45 | 1010.7 |
| 20260506041526 | 8 | 349 | 3.2 | 12.9 | 0.00 | 0.00 | 0.00 | 45 | 1010.6 |
| 20260506041004 | 8 | 352 | 3.2 | 11.3 | 0.00 | 0.00 | 0.00 | 45 | 1010.5 |
| 20260506040510 | 8 | 349 | 4.8 | 11.3 | 0.00 | 0.00 | 0.00 | 46 | 1010.5 |
| 20260506040025 | 8 | 1 | 1.6 | 4.8 | 0.00 | 0.00 | 0.00 | 49 | 1010.5 |
| 20260506035508 | 8 | 359 | 0.0 | 3.2 | 0.00 | 0.00 | 0.00 | 50 | 1010.4 |
| 20260506035010 | 8 | 359 | 1.6 | 3.2 | 0.00 | 0.00 | 0.00 | 47 | 1010.2 |
| 20260506034526 | 8 | 359 | 0.0 | 4.8 | 0.00 | 0.00 | 0.00 | 45 | 1010.0 |
| 20260506034004 | 9 | 1 | 1.6 | 4.8 | 0.00 | 0.00 | 0.00 | 44 | 1009.9 |
| 20260506033503 | 9 | 342 | 3.2 | 4.8 | 0.00 | 0.00 | 0.00 | 44 | 1009.9 |
| 20260506033009 | 9 | 1 | 1.6 | 4.8 | 0.00 | 0.00 | 0.00 | 45 | 1009.9 |
| 20260506032504 | 9 | 13 | 1.6 | 8.0 | 0.00 | 0.00 | 0.00 | 43 | 1009.9 |
| 20260506032007 | 9 | 352 | 1.6 | 8.0 | 0.00 | 0.00 | 0.00 | 43 | 1009.9 |
| 20260506031519 | 9 | 1 | 0.0 | 8.0 | 0.00 | 0.00 | 0.00 | 42 | 1010.0 |
| 20260506031006 | 10 | 6 | 0.0 | 8.0 | 0.00 | 0.00 | 0.00 | 42 | 1009.9 |
| 20260506030508 | 9 | 18 | 1.6 | 8.0 | 0.00 | 0.00 | 0.00 | 42 | 1009.9 |
| 20260506030025 | 10 | 359 | 0.0 | 8.0 | 0.00 | 0.00 | 0.00 | 44 | 1010.0 |
| 20260506025505 | 10 | 359 | 1.6 | 8.0 | 0.00 | 0.00 | 0.00 | 43 | 1010.0 |
| 20260506025009 | 10 | 307 | 3.2 | 8.0 | 0.00 | 0.00 | 0.00 | 44 | 1009.9 |
| 20260506024505 | 10 | 325 | 0.0 | 6.4 | 0.00 | 0.00 | 0.00 | 43 | 1009.8 |
| 20260506024004 | 10 | 20 | 1.6 | 6.4 | 0.00 | 0.00 | 0.00 | 45 | 1009.7 |
| 20260506023505 | 10 | 1 | 1.6 | 12.9 | 0.00 | 0.00 | 0.00 | 43 | 1009.7 |
| 20260506023007 | 10 | 10 | 3.2 | 12.9 | 0.00 | 0.00 | 0.00 | 44 | 1009.7 |
| 20260506022503 | 10 | 41 | 3.2 | 11.3 | 0.00 | 0.00 | 0.00 | 45 | 1009.7 |
| 20260506022004 | 10 | 360 | 1.6 | 8.0 | 0.00 | 0.00 | 0.00 | 44 | 1009.7 |
| 20260506021512 | 10 | 353 | 1.6 | 8.0 | 0.00 | 0.00 | 0.00 | 46 | 1009.6 |
| 20260506021008 | 10 | 6 | 3.2 | 8.0 | 0.00 | 0.00 | 0.00 | 47 | 1009.6 |
| 20260506020510 | 10 | 360 | 1.6 | 6.4 | 0.00 | 0.00 | 0.00 | 48 | 1009.4 |
| 20260506020022 | 9 | 14 | 1.6 | 8.0 | 0.00 | 0.00 | 0.00 | 53 | 1009.3 |
| 20260506015507 | 8 | 326 | 3.2 | 8.0 | 0.00 | 0.00 | 0.00 | 56 | 1009.1 |
| 20260506015006 | 8 | 293 | 0.0 | 0.0 | 0.00 | 0.00 | 0.00 | 55 | 1009.1 |
| 20260506014532 | 8 | 293 | 0.0 | 0.0 | 0.00 | 0.00 | 0.00 | 54 | 1009.0 |
| 20260506014009 | 8 | 293 | 0.0 | 0.0 | 0.00 | 0.00 | 0.00 | 54 | 1008.8 |
| 20260506013503 | 8 | 293 | 0.0 | 0.0 | 0.00 | 0.00 | 0.00 | 53 | 1008.8 |
| 20260506013012 | 8 | 293 | 0.0 | 0.0 | 0.00 | 0.00 | 0.00 | 52 | 1008.8 |
| 20260506012506 | 9 | 293 | 0.0 | 0.0 | 0.00 | 0.00 | 0.00 | 52 | 1008.7 |
| 20260506012001 | 9 | 293 | 0.0 | 0.0 | 0.00 | 0.00 | 0.00 | 51 | 1008.6 |
| 20260506011512 | 9 | 292 | 0.0 | 0.0 | 0.00 | 0.00 | 0.00 | 50 | 1008.5 |
| 20260506011005 | 9 | 292 | 0.0 | 0.0 | 0.00 | 0.00 | 0.00 | 50 | 1008.3 |
| 20260506010505 | 9 | 292 | 0.0 | 0.0 | 0.00 | 0.00 | 0.00 | 48 | 1008.2 |
| 20260506010023 | 10 | 292 | 0.0 | 0.0 | 0.00 | 0.00 | 0.00 | 48 | 1008.2 |
| 20260506005507 | 10 | 292 | 0.0 | 0.0 | 0.00 | 0.00 | 0.00 | 47 | 1008.1 |
| 20260506005010 | 10 | 292 | 0.0 | 0.0 | 0.00 | 0.00 | 0.00 | 44 | 1008.2 |
| 20260506004533 | 10 | 293 | 0.0 | 0.0 | 0.00 | 0.00 | 0.00 | 43 | 1008.1 |
| 20260506004007 | 10 | 293 | 0.0 | 3.2 | 0.00 | 0.00 | 0.00 | 42 | 1008.0 |
| 20260506003510 | 11 | 288 | 0.0 | 3.2 | 0.00 | 0.00 | 0.00 | 44 | 1008.0 |
| 20260506003024 | 11 | 302 | 1.6 | 4.8 | 0.00 | 0.00 | 0.00 | 42 | 1008.1 |
| 20260506002503 | 11 | 291 | 1.6 | 4.8 | 0.00 | 0.00 | 0.00 | 41 | 1008.0 |
| 20260506002003 | 11 | 295 | 1.6 | 4.8 | 0.00 | 0.00 | 0.00 | 39 | 1008.0 |
| 20260506001509 | 11 | 285 | 1.6 | 9.7 | 0.00 | 0.00 | 0.00 | 40 | 1008.0 |
| 20260506001004 | 11 | 288 | 3.2 | 9.7 | 0.00 | 0.00 | 0.00 | 37 | 1007.9 |
| 20260506000503 | 11 | 287 | 4.8 | 9.7 | 0.00 | 0.00 | 0.00 | 36 | 1007.9 |
| 20260506000019 | 12 | 287 | 4.8 | 9.7 | 0.00 | 0.00 | 0.00 | 37 | 1007.9 |
| 20260505235511 | 12 | 307 | 3.2 | 12.9 | 0.00 | 0.00 | 0.00 | 36 | 1007.9 |
| 20260505235006 | 12 | 282 | 6.4 | 19.3 | 0.00 | 0.00 | 0.00 | 35 | 1008.0 |
| 20260505234520 | 12 | 291 | 4.8 | 19.3 | 0.00 | 0.00 | 0.00 | 37 | 1008.0 |
| 20260505234006 | 12 | 319 | 8.0 | 19.3 | 0.00 | 0.00 | 0.00 | 34 | 1008.0 |
| 20260505233511 | 12 | 275 | 6.4 | 16.1 | 0.00 | 0.00 | 0.00 | 36 | 1008.0 |
| 20260505233023 | 12 | 302 | 6.4 | 14.5 | 0.00 | 0.00 | 0.00 | 37 | 1008.0 |
| 20260505232509 | 12 | 279 | 3.2 | 9.7 | 0.00 | 0.00 | 0.00 | 38 | 1008.0 |
| 20260505232007 | 12 | 359 | 4.8 | 9.7 | 0.00 | 0.00 | 0.00 | 38 | 1007.9 |
| 20260505231506 | 12 | 323 | 4.8 | 12.9 | 0.00 | 0.00 | 0.00 | 38 | 1008.0 |
| 20260505231004 | 12 | 338 | 4.8 | 19.3 | 0.00 | 0.00 | 0.00 | 38 | 1008.0 |
| 20260505230503 | 12 | 259 | 9.7 | 19.3 | 0.00 | 0.00 | 0.00 | 35 | 1008.1 |
| 20260505230015 | 12 | 266 | 4.8 | 16.1 | 0.00 | 0.00 | 0.00 | 37 | 1008.1 |
| 20260505225503 | 12 | 300 | 3.2 | 9.7 | 0.00 | 0.00 | 0.00 | 38 | 1008.1 |
| 20260505225007 | 12 | 321 | 3.2 | 16.1 | 0.00 | 0.00 | 0.00 | 36 | 1008.1 |
| 20260505224524 | 12 | 315 | 8.0 | 16.1 | 0.00 | 0.00 | 0.00 | 35 | 1008.1 |
| 20260505224007 | 12 | 281 | 8.0 | 16.1 | 0.00 | 0.00 | 0.00 | 33 | 1008.1 |
| 20260505223509 | 12 | 300 | 8.0 | 16.1 | 0.00 | 0.00 | 0.00 | 36 | 1008.1 |
| 20260505223036 | 12 | 295 | 8.0 | 14.5 | 0.00 | 0.00 | 0.00 | 36 | 1008.1 |
| 20260505222507 | 12 | 335 | 8.0 | 14.5 | 0.00 | 0.00 | 0.00 | 35 | 1008.1 |
| 20260505222010 | 12 | 290 | 1.6 | 14.5 | 0.00 | 0.00 | 0.00 | 37 | 1008.0 |
| 20260505221525 | 12 | 266 | 3.2 | 14.5 | 0.00 | 0.00 | 0.00 | 34 | 1008.1 |
| 20260505221007 | 12 | 297 | 9.7 | 16.1 | 0.00 | 0.00 | 0.00 | 34 | 1008.1 |
| 20260505220508 | 12 | 302 | 6.4 | 16.1 | 0.00 | 0.00 | 0.00 | 35 | 1008.1 |
| 20260505220023 | 12 | 290 | 4.8 | 11.3 | 0.00 | 0.00 | 0.00 | 38 | 1008.2 |
| 20260505215505 | 12 | 297 | 3.2 | 11.3 | 0.00 | 0.00 | 0.00 | 38 | 1008.2 |
| 20260505215009 | 12 | 318 | 4.8 | 16.1 | 0.00 | 0.00 | 0.00 | 37 | 1008.1 |
| 20260505214524 | 12 | 297 | 6.4 | 24.1 | 0.00 | 0.00 | 0.00 | 36 | 1008.1 |
| 20260505214007 | 12 | 271 | 9.7 | 24.1 | 0.00 | 0.00 | 0.00 | 35 | 1008.1 |
| 20260505213507 | 13 | 264 | 9.7 | 19.3 | 0.00 | 0.00 | 0.00 | 33 | 1008.2 |
| 20260505213025 | 13 | 297 | 6.4 | 17.7 | 0.00 | 0.00 | 0.00 | 34 | 1008.1 |
| 20260505212505 | 13 | 261 | 8.0 | 17.7 | 0.00 | 0.00 | 0.00 | 35 | 1008.2 |
| 20260505212002 | 13 | 284 | 6.4 | 22.5 | 0.00 | 0.00 | 0.00 | 38 | 1008.1 |
| 20260505211504 | 12 | 352 | 8.0 | 22.5 | 0.00 | 0.00 | 0.00 | 32 | 1008.1 |
| 20260505211004 | 12 | 288 | 6.4 | 16.1 | 0.00 | 0.00 | 0.00 | 35 | 1008.2 |
| 20260505210503 | 12 | 299 | 6.4 | 16.1 | 0.00 | 0.00 | 0.00 | 33 | 1008.2 |
| 20260505210009 | 12 | 277 | 8.0 | 19.3 | 0.00 | 0.00 | 0.00 | 33 | 1008.2 |
| 20260505205507 | 12 | 286 | 8.0 | 19.3 | 0.00 | 0.00 | 0.00 | 34 | 1008.3 |
| 20260505205006 | 12 | 291 | 9.7 | 19.3 | 0.00 | 0.00 | 0.00 | 33 | 1008.1 |
| 20260505204523 | 12 | 352 | 11.3 | 19.3 | 0.00 | 0.00 | 0.00 | 33 | 1008.1 |
| 20260505204005 | 12 | 273 | 9.7 | 19.3 | 0.00 | 0.00 | 0.00 | 33 | 1008.3 |
| 20260505203505 | 12 | 276 | 6.4 | 22.5 | 0.00 | 0.00 | 0.00 | 34 | 1008.3 |
| 20260505203016 | 12 | 327 | 11.3 | 22.5 | 0.00 | 0.00 | 0.00 | 31 | 1008.5 |
| 20260505202507 | 13 | 341 | 6.4 | 19.3 | 0.00 | 0.00 | 0.00 | 35 | 1008.3 |
| 20260505202006 | 13 | 324 | 8.0 | 25.7 | 0.00 | 0.00 | 0.00 | 36 | 1008.3 |
| 20260505201540 | 13 | 311 | 6.4 | 25.7 | 0.00 | 0.00 | 0.00 | 33 | 1008.3 |
| 20260505201003 | 13 | 300 | 6.4 | 20.9 | 0.00 | 0.00 | 0.00 | 32 | 1008.4 |
| 20260505200506 | 13 | 271 | 6.4 | 14.5 | 0.00 | 0.00 | 0.00 | 32 | 1008.3 |
| 20260505200009 | 13 | 334 | 4.8 | 25.7 | 0.00 | 0.00 | 0.00 | 30 | 1008.4 |
| 20260505195504 | 13 | 293 | 12.9 | 25.7 | 0.00 | 0.00 | 0.00 | 32 | 1008.5 |
| 20260505195003 | 13 | 291 | 6.4 | 17.7 | 0.00 | 0.00 | 0.00 | 31 | 1008.5 |
| 20260505194510 | 13 | 318 | 6.4 | 22.5 | 0.00 | 0.00 | 0.00 | 30 | 1008.5 |
| 20260505194005 | 13 | 295 | 12.9 | 22.5 | 0.00 | 0.00 | 0.00 | 29 | 1008.5 |
| 20260505193503 | 13 | 315 | 8.0 | 19.3 | 0.00 | 0.00 | 0.00 | 33 | 1008.5 |
| 20260505193035 | 13 | 277 | 9.7 | 19.3 | 0.00 | 0.00 | 0.00 | 29 | 1008.6 |
| 20260505192506 | 13 | 309 | 8.0 | 24.1 | 0.00 | 0.00 | 0.00 | 30 | 1008.7 |
| 20260505192005 | 13 | 333 | 9.7 | 24.1 | 0.00 | 0.00 | 0.00 | 29 | 1008.7 |
| 20260505191519 | 13 | 305 | 8.0 | 17.7 | 0.00 | 0.00 | 0.00 | 31 | 1008.7 |
| 20260505191006 | 13 | 315 | 4.8 | 17.7 | 0.00 | 0.00 | 0.00 | 33 | 1008.7 |
| 20260505190506 | 12 | 307 | 8.0 | 16.1 | 0.00 | 0.00 | 0.00 | 33 | 1008.7 |
| 20260505190013 | 12 | 280 | 8.0 | 17.7 | 0.00 | 0.00 | 0.00 | 34 | 1008.7 |
| 20260505185506 | 12 | 328 | 6.4 | 22.5 | 0.00 | 0.00 | 0.00 | 34 | 1008.7 |
| 20260505185004 | 12 | 256 | 11.3 | 24.1 | 0.00 | 0.00 | 0.00 | 32 | 1008.6 |
| 20260505184510 | 12 | 287 | 12.9 | 24.1 | 0.00 | 0.00 | 0.00 | 33 | 1008.7 |
| 20260505184004 | 12 | 306 | 11.3 | 25.7 | 0.00 | 0.00 | 0.00 | 36 | 1008.8 |
| 20260505183503 | 12 | 298 | 12.9 | 25.7 | 0.00 | 0.00 | 0.00 | 33 | 1008.6 |
| 20260505183022 | 13 | 311 | 9.7 | 25.7 | 0.00 | 0.00 | 0.00 | 38 | 1008.5 |
| 20260505182503 | 12 | 274 | 9.7 | 22.5 | 0.00 | 0.00 | 0.00 | 32 | 1008.6 |
| 20260505182007 | 13 | 305 | 9.7 | 25.7 | 0.00 | 0.00 | 0.00 | 35 | 1008.6 |
| 20260505181521 | 12 | 288 | 9.7 | 25.7 | 0.00 | 0.00 | 0.00 | 34 | 1008.5 |
| 20260505181014 | 12 | 333 | 12.9 | 22.5 | 0.00 | 0.00 | 0.00 | 32 | 1008.3 |
| 20260505180507 | 12 | 303 | 11.3 | 22.5 | 0.00 | 0.00 | 0.00 | 33 | 1008.3 |
| 20260505180033 | 12 | 295 | 12.9 | 22.5 | 0.00 | 0.00 | 0.00 | 32 | 1008.3 |
| 20260505175510 | 12 | 304 | 9.7 | 24.1 | 0.00 | 0.00 | 0.00 | 35 | 1008.3 |
| 20260505175008 | 12 | 309 | 11.3 | 20.9 | 0.00 | 0.00 | 0.00 | 34 | 1008.1 |
| 20260505174508 | 12 | 321 | 8.0 | 24.1 | 0.00 | 0.00 | 0.00 | 38 | 1008.2 |
| 20260505174004 | 12 | 297 | 8.0 | 24.1 | 0.00 | 0.00 | 0.00 | 33 | 1008.3 |
| 20260505173504 | 12 | 299 | 4.8 | 20.9 | 0.00 | 0.00 | 0.00 | 37 | 1008.3 |
| 20260505173014 | 11 | 303 | 6.4 | 20.9 | 0.00 | 0.00 | 0.00 | 36 | 1008.3 |
| 20260505172503 | 11 | 271 | 9.7 | 22.5 | 0.00 | 0.00 | 0.00 | 35 | 1008.2 |
| 20260505172003 | 12 | 282 | 9.7 | 22.5 | 0.00 | 0.00 | 0.00 | 34 | 1008.3 |
| 20260505171526 | 11 | 291 | 12.9 | 17.7 | 0.00 | 0.00 | 0.00 | 34 | 1008.3 |
| 20260505171007 | 11 | 297 | 8.0 | 25.7 | 0.00 | 0.00 | 0.00 | 35 | 1008.4 |
| 20260505170509 | 12 | 328 | 11.3 | 25.7 | 0.00 | 0.00 | 0.00 | 37 | 1008.4 |
| 20260505170021 | 12 | 279 | 8.0 | 24.1 | 0.00 | 0.00 | 0.00 | 38 | 1008.3 |
| 20260505165509 | 12 | 293 | 6.4 | 24.1 | 0.00 | 0.00 | 0.00 | 37 | 1008.3 |
| 20260505165006 | 12 | 309 | 11.3 | 20.9 | 0.00 | 0.00 | 0.00 | 37 | 1008.2 |
| 20260505164533 | 12 | 256 | 4.8 | 19.3 | 0.00 | 0.00 | 0.00 | 38 | 1008.1 |
| 20260505164009 | 12 | 297 | 9.7 | 19.3 | 0.00 | 0.00 | 0.00 | 37 | 1007.9 |
| 20260505163504 | 12 | 334 | 8.0 | 17.7 | 0.00 | 0.00 | 0.00 | 37 | 1008.0 |
| 20260505163009 | 12 | 278 | 6.4 | 19.3 | 0.00 | 0.00 | 0.00 | 37 | 1008.1 |
| 20260505162502 | 11 | 271 | 8.0 | 19.3 | 0.00 | 0.00 | 0.00 | 38 | 1008.1 |
| 20260505162007 | 11 | 290 | 8.0 | 17.7 | 0.00 | 0.00 | 0.00 | 38 | 1008.1 |
| 20260505161516 | 11 | 317 | 8.0 | 19.3 | 0.00 | 0.00 | 0.00 | 38 | 1008.2 |
| 20260505161004 | 11 | 303 | 9.7 | 19.3 | 0.00 | 0.00 | 0.00 | 38 | 1008.1 |
| 20260505160504 | 11 | 281 | 8.0 | 22.5 | 0.00 | 0.00 | 0.00 | 36 | 1008.2 |
| 20260505153032 | 10 | 287 | 6.4 | 14.5 | 0.00 | 0.00 | 0.00 | 42 | 1008.2 |
| 20260505152503 | 10 | 287 | 6.4 | 12.9 | 0.00 | 0.00 | 0.00 | 45 | 1008.2 |
| 20260505152006 | 10 | 276 | 4.8 | 14.5 | 0.00 | 0.00 | 0.00 | 42 | 1008.3 |
| 20260505151513 | 10 | 279 | 8.0 | 17.7 | 0.00 | 0.00 | 0.00 | 42 | 1008.3 |
| 20260505151007 | 10 | 309 | 6.4 | 16.1 | 0.00 | 0.00 | 0.00 | 45 | 1008.3 |
| 20260505150504 | 9 | 261 | 3.2 | 14.5 | 0.00 | 0.00 | 0.00 | 45 | 1008.3 |
| 20260505140512 | 9 | 311 | 8.0 | 17.7 | 0.00 | 0.00 | 0.00 | 45 | 1008.5 |
| 20260505125009 | 8 | 294 | 4.8 | 12.9 | 0.00 | 0.00 | 0.00 | 50 | 1008.2 |
| 20260505124527 | 8 | 301 | 4.8 | 12.9 | 0.00 | 0.00 | 0.00 | 52 | 1008.3 |
| 20260505124011 | 8 | 295 | 8.0 | 11.3 | 0.00 | 0.00 | 0.00 | 52 | 1008.2 |
| 20260505123514 | 8 | 308 | 3.2 | 11.3 | 0.00 | 0.00 | 0.00 | 53 | 1008.3 |
| 20260505123036 | 8 | 291 | 3.2 | 11.3 | 0.00 | 0.00 | 0.00 | 52 | 1008.4 |
| 20260505122513 | 8 | 296 | 4.8 | 9.7 | 0.00 | 0.00 | 0.00 | 53 | 1008.4 |
| 20260505122001 | 8 | 283 | 3.2 | 9.7 | 0.00 | 0.00 | 0.00 | 51 | 1008.6 |
| 20260505121507 | 8 | 268 | 4.8 | 11.3 | 0.00 | 0.00 | 0.00 | 53 | 1008.4 |
| 20260505121005 | 8 | 307 | 3.2 | 12.9 | 0.00 | 0.00 | 0.00 | 51 | 1008.3 |
| 20260505120508 | 8 | 292 | 4.8 | 12.9 | 0.00 | 0.00 | 0.00 | 50 | 1008.5 |
| 20260505120013 | 8 | 320 | 3.2 | 8.0 | 0.00 | 0.00 | 0.00 | 51 | 1008.2 |
| 20260505115507 | 8 | 294 | 3.2 | 9.7 | 0.00 | 0.00 | 0.00 | 51 | 1008.3 |
| 20260505115005 | -17 | 310 | 3.2 | 0.0 | 0.00 | 0.00 | 0.00 | 1007.9 | |
| 20260505114536 | -17 | 0.0 | 0.0 | 0.00 | 0.00 | 0.00 | 1007.7 | ||
| 20260505114010 | -17 | 0.0 | 0.0 | 0.00 | 0.00 | 0.00 | 1007.5 | ||
| 20260505113507 | -17 | 0.0 | 0.0 | 0.00 | 0.00 | 0.00 | 1006.8 | ||
| 20260505113026 | -17 | 0.0 | 0.0 | 0.00 | 0.00 | 0.00 | 1008.1 | ||
| 20260505112511 | -17 | 0.0 | 0.0 | 0.00 | 0.00 | 0.00 | 1006.7 | ||
| 20260505112010 | -17 | 0.0 | 0.0 | 0.00 | 0.00 | 0.00 | 1006.0 | ||
| 20260505111528 | -17 | 0.0 | 0.0 | 0.00 | 0.00 | 0.00 | 1006.3 | ||
| 20260505111009 | -17 | 0.0 | 0.0 | 0.00 | 0.00 | 0.00 | 1006.4 | ||
| 20260505110511 | -17 | 0.0 | 0.0 | 0.00 | 0.00 | 0.00 | 1006.6 | ||
| 20260505102011 | -17 | 0.0 | 0.0 | 0.00 | 0.00 | 0.00 | 1006.3 | ||
| 20260505101526 | -17 | 0.0 | 0.0 | 0.00 | 0.00 | 0.00 | 1006.2 | ||
| 20260505101010 | -17 | 0.0 | 0.0 | 0.00 | 0.00 | 0.00 | 1006.1 | ||
| 20260505100509 | -17 | 0.0 | 0.0 | 0.00 | 0.00 | 0.00 | 1005.9 | ||
| 20260505100031 | -17 | 0.0 | 0.0 | 0.00 | 0.00 | 0.00 | 1005.8 | ||
| 20260505095509 | -17 | 0.0 | 0.0 | 0.00 | 0.00 | 0.00 | 1005.8 | ||
| 20260505095010 | -17 | 0.0 | 0.0 | 0.00 | 0.00 | 0.00 | 1005.9 | ||
| 20260505094530 | -17 | 0.0 | 0.0 | 0.00 | 0.00 | 0.00 | 1005.7 | ||
| 20260505094013 | -17 | 0.0 | 0.0 | 0.00 | 0.00 | 0.00 | 1005.7 | ||
| 20260505093511 | -17 | 0.0 | 0.0 | 0.00 | 0.00 | 0.00 | 1005.8 | ||
| 20260505093037 | -17 | 0.0 | 0.0 | 0.00 | 0.00 | 0.00 | 1005.9 | ||
| 20260505092511 | -17 | 0.0 | 0.0 | 0.00 | 0.00 | 0.00 | 1005.8 | ||
| 20260505092013 | -17 | 0.0 | 0.0 | 0.00 | 0.00 | 0.00 | 1006.0 | ||
| 20260505091538 | -17 | 0.0 | 0.0 | 0.00 | 0.00 | 0.00 | 1005.7 | ||
| 20260505091009 | -17 | 0.0 | 0.0 | 0.00 | 0.00 | 0.00 | 1005.6 | ||
| 20260505090509 | -17 | 0.0 | 0.0 | 0.00 | 0.00 | 0.00 | 1005.6 | ||
| 20260505090043 | -17 | 0.0 | 0.0 | 0.00 | 0.00 | 0.00 | 1005.5 | ||
| 20260505085508 | -17 | 0.0 | 0.0 | 0.00 | 0.00 | 0.00 | 1005.5 | ||
| 20260505085012 | -17 | 0.0 | 0.0 | 0.00 | 0.00 | 0.00 | 1005.3 | ||
| 20260505084528 | -17 | 6.4 | 14.5 | 0.00 | 0.00 | 0.00 | 1005.1 | ||
| 20260505084012 | 10 | 349 | 4.8 | 17.7 | 0.00 | 0.00 | 0.00 | 51 | 1004.9 |
| 20260505083507 | 10 | 326 | 4.8 | 17.7 | 0.00 | 0.00 | 0.00 | 52 | 1004.5 |
| 20260505083011 | 10 | 337 | 4.8 | 9.7 | 0.00 | 0.00 | 0.00 | 53 | 1004.5 |
| 20260505082502 | 10 | 293 | 3.2 | 8.0 | 0.00 | 0.00 | 0.00 | 53 | 1004.6 |
| 20260505082007 | 10 | 315 | 4.8 | 11.3 | 0.00 | 0.00 | 0.00 | 53 | 1004.4 |
| 20260505081521 | 10 | 315 | 4.8 | 12.9 | 0.00 | 0.00 | 0.00 | 51 | 1004.1 |
| 20260505081008 | 10 | 308 | 6.4 | 12.9 | 0.00 | 0.00 | 0.00 | 50 | 1003.9 |
| 20260505080505 | 11 | 333 | 4.8 | 9.7 | 0.00 | 0.00 | 0.00 | 53 | 1003.8 |
| 20260505080043 | 11 | 317 | 4.8 | 8.0 | 0.00 | 0.00 | 0.00 | 52 | 1003.6 |
| 20260505075506 | 11 | 316 | 4.8 | 8.0 | 0.00 | 0.00 | 0.00 | 53 | 1003.7 |
| 20260505075006 | 11 | 273 | 3.2 | 6.4 | 0.00 | 0.00 | 0.00 | 53 | 1003.5 |
| 20260505074528 | 11 | 311 | 1.6 | 22.5 | 0.00 | 0.00 | 0.00 | 53 | 1003.3 |
| 20260505074008 | 11 | 356 | 1.6 | 22.5 | 0.00 | 0.00 | 0.00 | 52 | 1002.9 |
| 20260505073507 | 11 | 354 | 6.4 | 17.7 | 0.00 | 0.00 | 0.00 | 49 | 1003.0 |
| 20260505073032 | 12 | 360 | 3.2 | 16.1 | 0.00 | 0.00 | 0.00 | 48 | 1003.1 |
| 20260505072507 | 12 | 297 | 4.8 | 19.3 | 0.00 | 0.00 | 0.00 | 49 | 1003.2 |
| 20260505072012 | 12 | 293 | 8.0 | 19.3 | 0.00 | 0.00 | 0.00 | 51 | 1003.0 |
| 20260505071514 | 12 | 309 | 4.8 | 17.7 | 0.00 | 0.00 | 0.00 | 50 | 1002.7 |
| 20260505071006 | 12 | 7 | 6.4 | 22.5 | 0.00 | 0.00 | 0.00 | 48 | 1002.8 |
| 20260505070505 | 12 | 358 | 6.4 | 22.5 | 0.00 | 0.00 | 0.00 | 48 | 1002.8 |
| 20260505070022 | 12 | 349 | 4.8 | 20.9 | 0.00 | 0.00 | 0.00 | 46 | 1002.8 |
| 20260505065508 | 12 | 353 | 6.4 | 20.9 | 0.00 | 0.00 | 0.00 | 45 | 1002.6 |
| 20260505065007 | 12 | 316 | 3.2 | 9.7 | 0.00 | 0.00 | 0.00 | 46 | 1002.5 |
| 20260505064522 | 13 | 360 | 4.8 | 9.7 | 0.00 | 0.00 | 0.00 | 46 | 1002.4 |
| 20260505064013 | 13 | 332 | 4.8 | 9.7 | 0.00 | 0.00 | 0.00 | 46 | 1002.4 |
| 20260505063511 | 13 | 314 | 4.8 | 9.7 | 0.00 | 0.00 | 0.00 | 46 | 1002.2 |
| 20260505063027 | 13 | 314 | 4.8 | 11.3 | 0.00 | 0.00 | 0.00 | 44 | 1002.3 |
| 20260505062511 | 13 | 309 | 6.4 | 11.3 | 0.00 | 0.00 | 0.00 | 44 | 1002.3 |
| 20260505062009 | 13 | 298 | 4.8 | 9.7 | 0.00 | 0.00 | 0.00 | 43 | 1002.2 |
| 20260505061526 | 13 | 297 | 4.8 | 14.5 | 0.00 | 0.00 | 0.00 | 44 | 1002.2 |
| 20260505061012 | 14 | 326 | 8.0 | 14.5 | 0.00 | 0.00 | 0.00 | 42 | 1002.0 |
| 20260505060509 | 14 | 304 | 8.0 | 12.9 | 0.00 | 0.00 | 0.00 | 42 | 1002.0 |
| 20260505060022 | 14 | 303 | 4.8 | 12.9 | 0.00 | 0.00 | 0.00 | 43 | 1002.1 |
| 20260505055508 | 14 | 310 | 4.8 | 14.5 | 0.00 | 0.00 | 0.00 | 42 | 1002.0 |
| 20260505055009 | 14 | 324 | 6.4 | 14.5 | 0.00 | 0.00 | 0.00 | 41 | 1001.9 |
| 20260505054523 | 15 | 309 | 4.8 | 14.5 | 0.00 | 0.00 | 0.00 | 39 | 1002.0 |
| 20260505054011 | 15 | 334 | 8.0 | 14.5 | 0.00 | 0.00 | 0.00 | 38 | 1002.0 |
| 20260505053511 | 15 | 316 | 8.0 | 12.9 | 0.00 | 0.00 | 0.00 | 36 | 1002.0 |
| 20260505053025 | 15 | 297 | 6.4 | 14.5 | 0.00 | 0.00 | 0.00 | 38 | 1001.9 |
| 20260505052510 | 15 | 291 | 8.0 | 19.3 | 0.00 | 0.00 | 0.00 | 36 | 1001.9 |
| 20260505052009 | 15 | 314 | 6.4 | 19.3 | 0.00 | 0.00 | 0.00 | 36 | 1001.7 |
| 20260505051525 | 15 | 311 | 4.8 | 17.7 | 0.00 | 0.00 | 0.00 | 36 | 1001.6 |
| 20260505051007 | 15 | 326 | 8.0 | 17.7 | 0.00 | 0.00 | 0.00 | 36 | 1001.5 |